STARLINK-35959 (66827 NORAD) Tracking and Keplerian Element Data

This shows tracking and keplerian element data for the satellite.

Feedback or suggestion? Click here.




ElementValue
Catalog66827
NameSTARLINK-35959
Epoch Orbit410
Epoch Day354.25003472
Epoch Year2025
RAAN177.8336
Inclination69.9994
Eccentricity0.000304
Argument of Perigee268.1704
Mean Anonmoly313.8693
Mean Motion15.52488562
Decay Rate0.00034
L11 66827U 25280G 25354.25003472 .00034000 00000+0 55363-3 0 9999
L22 66827 69.9994 177.8336 0003040 268.1704 313.8693 15.52488562 4101



Live tracking and technical data element details for STARLINK-35959 (NORAD 66827). STARLINK-35959 can be tracked NOW for your location showing map with azimuth and elevation plus other details from your city location.







IsCatalogInMostPopularTable: catalog: 66827, numindb: 21
Update: records affected: 1



GetName: 66827 STARLINK-35959

Hit Count: updated at: Mon, 20 Apr 2026 09:46:09 GMT